World > North America > United States > Texas > Ferris   City of Ferris, TX

Ferris, TX Hourly Weather Updates

Feedback E-mail the Weather

Quick Clicks

Ferris, TX Weather Maps

°F °C°F °C
Ferris Weather Map
UTC Time: 6/17/2024, 06:23
Your Time:

Ferris, TX Regional Weather

Expires:202406170700;;157057
ASUS44 KFWD 170615
RWRTX 
NORTH TEXAS HOURLY WEATHER ROUNDUP
NATIONAL WEATHER SERVICE FORT WORTH TX
100 AM CDT MON JUN 17 2024

NOTE: "FAIR" INDICATES FEW OR NO CLOUDS BELOW 12,000 FEET WITH NO
SIGNIFICANT WEATHER AND/OR OBSTRUCTIONS TO VISIBILITY.


TXZ091>094-102>105-117-120-121-131>134-170700-
NORTH CENTRAL TEXAS
  
CITY           SKY/WX    TMP DP  RH WIND       PRES   REMARKS
SHRMAN/DENISON FAIR      79  68  69 SE6       29.86F                  
6HR MIN TEMP:  79; 6HR MAX TEMP:  92;                                

GAINESVILLE    FAIR      75  68  79 SE5       29.86F                  
6HR MIN TEMP:  74; 6HR MAX TEMP:  89;                                

BOWIE          FAIR      75  66  74 SE3       29.85F                  
6HR MIN TEMP:  75; 6HR MAX TEMP:  89;                                

BRIDGEPORT     FAIR      79  65  63 SE9       29.85F                  
6HR MIN TEMP:  77; 6HR MAX TEMP:  88;                                

DECATUR        FAIR      79  67  65 CALM      29.86S                  
6HR MIN TEMP:  79; 6HR MAX TEMP:  91;                                

MCKINNEY       FAIR      78  71  79 SE6       29.85S                  
6HR MIN TEMP:  78; 6HR MAX TEMP:  91;                                

BONHAM         FAIR      77  70  81 SE7       29.86F                  
6HR MIN TEMP:  77; 6HR MAX TEMP:  89;                                

GREENVILLE     FAIR      74  71  91 SE5       29.86F                  
6HR MIN TEMP:  73; 6HR MAX TEMP:  89;                                

ROCKWALL       FAIR      78  70  77 SE5       29.85F                  
6HR MIN TEMP:  78; 6HR MAX TEMP:  90;                                

TERRELL        FAIR      79  70  74 SE6       29.86R                  
6HR MIN TEMP:  79; 6HR MAX TEMP:  90;                                

WAXAHACHIE     FAIR      79  70  75 SE7       29.87S                  
CLEBURNE       CLEAR     79  72  78 SE10      29.86F                  
$$


SKY/WX - Weather  TMP - Temperature  DP - Dew Point  RH - Humidity
WIND - Wind Direction/Speed PRES - Barometric Pressure VSB - Visibility
WCI - Wind Chill Index E13G22 Wind - East Wind 13 mph/Gusts of 22 mph

Trending Headlines

Trending Entertainment Headlines

Ferris Radar Loop

Use the map search tool if you want to place a location marker on the radar map...

Ferris Quick Facts

National Two Day Weather Forecast


E-mail the Ferris Weather Forecast

Voice your opinion or tell us about page issues...